TimeEDT,TemperatureF,Dew PointF,Humidity,Sea Level PressureIn,VisibilityMPH,Wind Direction,Wind SpeedMPH,Gust SpeedMPH,PrecipitationIn,Events,Conditions,WindDirDegrees,DateUTC
12:01 AM,39.2,39.2,100,30.19,0.2,Calm,Calm,-,N/A,Fog,Fog,0,2012-10-08 04:01:00
12:10 AM,39.2,39.2,100,30.19,0.5,Calm,Calm,-,N/A,Fog,Fog,0,2012-10-08 04:10:00
12:22 AM,39.2,39.2,100,30.19,1.0,Calm,Calm,-,N/A,,Mist,0,2012-10-08 04:22:00
12:29 AM,39.2,39.2,100,30.18,1.0,Calm,Calm,-,N/A,,Mist,0,2012-10-08 04:29:00
12:37 AM,39.2,39.2,100,30.18,0.5,North,3.5,-,N/A,Fog,Fog,360,2012-10-08 04:37:00
12:39 AM,39.2,39.2,100,30.18,0.2,North,3.5,-,N/A,Fog,Fog,360,2012-10-08 04:39:00
12:47 AM,42.8,42.8,100,30.18,0.5,NW,4.6,-,N/A,Fog,Fog,320,2012-10-08 04:47:00
12:54 AM,43.0,43.0,100,30.19,1.0,NNW,3.5,-,N/A,,Mist,340,2012-10-08 04:54:00
1:06 AM,42.8,42.8,100,30.18,0.5,Calm,Calm,-,N/A,Fog,Fog,0,2012-10-08 05:06:00
1:15 AM,42.8,42.8,100,30.18,1.2,Calm,Calm,-,N/A,,Scattered Clouds,0,2012-10-08 05:15:00
1:17 AM,42.8,42.8,100,30.19,2.0,North,3.5,-,N/A,,Scattered Clouds,10,2012-10-08 05:17:00
1:25 AM,42.8,41.0,93,30.19,6.0,North,3.5,-,N/A,,Partly Cloudy,10,2012-10-08 05:25:00
1:49 AM,41.0,41.0,100,30.19,1.8,North,5.8,-,N/A,,Scattered Clouds,10,2012-10-08 05:49:00
1:52 AM,41.0,41.0,100,30.19,1.0,North,6.9,-,N/A,,Mist,10,2012-10-08 05:52:00
1:54 AM,42.1,41.0,96,30.19,0.8,North,5.8,-,N/A,,Mist,360,2012-10-08 05:54:00
2:00 AM,42.8,41.0,93,30.19,0.2,North,6.9,-,N/A,Fog,Fog,10,2012-10-08 06:00:00
2:16 AM,42.8,42.8,100,30.19,0.5,North,4.6,-,N/A,Fog,Fog,360,2012-10-08 06:16:00
2:54 AM,42.1,42.1,100,30.19,0.5,North,3.5,-,N/A,Fog,Fog,350,2012-10-08 06:54:00
3:04 AM,42.8,42.8,100,30.18,0.5,North,4.6,-,N/A,Fog,Fog,10,2012-10-08 07:04:00
3:34 AM,42.8,42.8,100,30.17,1.0,NNE,4.6,-,N/A,,Mist,30,2012-10-08 07:34:00
3:39 AM,42.8,42.8,100,30.18,1.5,NNE,4.6,-,N/A,,Overcast,30,2012-10-08 07:39:00
3:54 AM,43.0,43.0,100,30.20,1.5,Calm,Calm,-,N/A,,Overcast,0,2012-10-08 07:54:00
4:14 AM,42.8,42.8,100,30.20,1.0,North,4.6,-,N/A,,Overcast,360,2012-10-08 08:14:00
4:28 AM,42.8,42.8,100,30.21,2.0,North,4.6,-,N/A,,Mostly Cloudy,360,2012-10-08 08:28:00
4:33 AM,42.8,42.8,100,30.20,7.0,North,5.8,-,N/A,,Mostly Cloudy,10,2012-10-08 08:33:00
4:54 AM,43.0,42.1,97,30.22,10.0,North,3.5,-,N/A,,Mostly Cloudy,10,2012-10-08 08:54:00
5:54 AM,43.0,41.0,93,30.22,10.0,North,4.6,-,N/A,,Mostly Cloudy,10,2012-10-08 09:54:00
6:54 AM,44.1,41.0,89,30.24,10.0,North,4.6,-,N/A,,Overcast,360,2012-10-08 10:54:00
7:54 AM,44.1,42.1,93,30.25,10.0,Calm,Calm,-,N/A,,Scattered Clouds,0,2012-10-08 11:54:00
8:54 AM,45.0,39.9,82,30.26,10.0,Variable,3.5,-,N/A,,Overcast,0,2012-10-08 12:54:00
9:54 AM,45.0,41.0,86,30.28,10.0,NNE,5.8,-,0.00,,Overcast,30,2012-10-08 13:54:00
10:54 AM,46.0,41.0,83,30.30,8.0,NE,4.6,-,0.00,Rain,Light Rain,50,2012-10-08 14:54:00
11:54 AM,46.9,41.0,80,30.28,10.0,NE,8.1,-,0.01,,Overcast,50,2012-10-08 15:54:00
12:54 PM,46.9,39.9,77,30.28,10.0,NE,5.8,-,0.00,,Overcast,40,2012-10-08 16:54:00
1:54 PM,46.9,39.0,74,30.28,10.0,ENE,4.6,-,N/A,,Overcast,60,2012-10-08 17:54:00
2:54 PM,46.0,41.0,83,30.25,9.0,NNE,8.1,-,0.03,Rain,Light Rain,30,2012-10-08 18:54:00
3:54 PM,46.9,41.0,80,30.21,10.0,NNE,8.1,-,0.00,,Overcast,20,2012-10-08 19:54:00
4:54 PM,46.9,42.1,83,30.21,10.0,NNE,8.1,-,N/A,,Overcast,20,2012-10-08 20:54:00
5:54 PM,48.0,42.1,80,30.20,10.0,NNE,8.1,-,N/A,,Overcast,30,2012-10-08 21:54:00
6:54 PM,46.9,41.0,80,30.21,10.0,NE,4.6,-,0.00,,Overcast,40,2012-10-08 22:54:00
7:54 PM,46.9,41.0,80,30.22,10.0,NE,5.8,-,0.00,,Overcast,40,2012-10-08 23:54:00
8:54 PM,46.9,41.0,80,30.22,10.0,North,8.1,-,N/A,,Overcast,10,2012-10-09 00:54:00
9:54 PM,45.0,41.0,86,30.23,10.0,North,8.1,-,0.00,,Overcast,10,2012-10-09 01:54:00
10:54 PM,44.1,41.0,89,30.23,10.0,NNE,6.9,-,0.00,Rain,Light Rain,20,2012-10-09 02:54:00
11:54 PM,44.1,41.0,89,30.22,10.0,North,5.8,-,0.00,,Overcast,10,2012-10-09 03:54:00